Location: Newark
(13.4819°N, 12.8431°E)
Time: 20:00:07
(UTC+00:00)

N. Korean satellite - Visible Passes

Search period start: 22 October 2019 00:00
Search period end: 01 November 2019 00:00
Orbit: 455 x 508 km, 97.2° (Epoch: 21 October)

Date Brightness Start Highest point End Pass type
(mag) Time Alt. Az. Time Alt. Az. Time Alt. Az.
22 Oct 9.9 04:07:17 10° NE 04:09:54 18° E 04:12:31 10° SE visible
23 Oct 9.6 17:09:33 10° SSW 17:12:12 21° W 17:14:52 10° NW visible
25 Oct 8.6 04:23:58 10° NNE 04:27:20 34° E 04:30:45 10° SSE visible
26 Oct 10.2 04:00:01 10° ENE 04:02:03 14° E 04:04:06 10° SE visible
26 Oct 10.4 17:28:37 10° WSW 17:29:38 11° W 17:30:38 10° W visible
29 Oct 9.2 04:16:20 10° NE 04:19:29 26° E 04:22:37 10° SSE visible
30 Oct 10.5 03:53:13 10° E 03:54:10 11° E 03:55:07 10° ESE visible
30 Oct 10.0 17:19:41 10° SW 17:21:41 15° W 17:23:42 10° WNW visible
